sat.trackr.live / text

‹ back to catalog

STARLINK-32247

NORAD 60446 · 2024-144X

PAYLOAD ACTIVE UNKNOWN

§ Identity

Operator
Country
US
Launch date
2024-08-12
Launch site
AFETR
Launch vehicle
Mass (kg)
RCS (m²)

Purposes: comms

External: N2YO · Heavens-Above · Gunter

§ Orbital elements

Epoch: 2026-05-24T21:50:07.551168Z

Period
94.11 min
Inclination
53.1595°
Eccentricity
0.0000892
Mean motion
15.30187373 rev/d
Perigee alt
474.6 km
Apogee alt
475.9 km
Semi-major
6,853.4 km
B*
-5.7029e-6
RAAN
212.6681°
Arg perigee
80.4074°
Mean anomaly
279.7027°
Rev number
10,116

§ Raw data

STARLINK-322471 60446U 24144X   26144.90980962 -.00000528  00000+0 -57029-5 0  99992 60446  53.1595 212.6681 0000892  80.4074 279.7027 15.30187373101169

JSON: /api/v1/satellites/60446 · /tle

For live sub-satellite position, see the globe view (requires WebGL).

§ Visibility from observer

Set your observer location to see the next 7 days of passes ≥ 10°. The values pass through the URL so the page stays shareable.

No JS? Fill the form by hand. The geolocation button needs JavaScript.